Hourly Data Report for May 15, 2012

All times are specified in Local Standard Time (LST). Add 1 hour to adjust for Daylight Saving Time where and when it is observed.

ST. JOHN'S INTL A
NEWFOUNDLAND

47°37'07.000" N
52°45'09.000" W
140.50 m
8403505
71801
YYT

Download Data

Hourly Data (May 2012)
Hourly Data Report for May 15, 2012
Temp Definition
°C
Dew Point Temp Definition
°C
Rel Hum Definition
%
Wind Dir Definition
10's deg

Wind Spd Definition
km/h
Visibility Definition
km
Stn Press Definition
kPa
Hmdx Definition


Wind Chill Definition


Weather Definition


TIME
00:30 5.1 3.6 90 26 18 10.0 101.18     LegendNANA
01:30 4.8 3.3 90 26 22 10.0 101.19     LegendNANA
02:30 4.9 3.6 91 26 18 10.0 101.19     Mainly Clear
03:30 5.1 3.6 90 26 18 10.0 101.21     LegendNANA
04:30 5.3 3.8 90 26 12 10.0 101.22     LegendNANA
05:30 6.3 3.8 84 21 10 10.0 101.25     Mostly Cloudy
06:30 8.6 4.3 74 24 14 10.0 101.27     LegendNANA
07:30 11.0 6.2 72 16 5 10.0 101.28     LegendNANA
08:30 13.1 4.6 56 23 11 10.0 101.30     Mainly Clear
09:30 15.4 7.0 57 15 11 10.0 101.27     LegendNANA
10:30 16.3 7.3 55 14 18 10.0 101.23     LegendNANA
11:30 17.0 7.5 53 13 26 10.0 101.19     Mainly Clear
12:30 17.2 6.5 49 27 25 10.0 101.19     LegendNANA
13:30 18.7 7.9 49 26 22 10.0 101.16     LegendNANA
14:30 18.0 6.6 47 26 30 10.0 101.14     Mainly Clear
15:30 16.3 6.0 50 25 22 10.0 101.11     LegendNANA
16:30 17.2 8.4 56 22 17 10.0 101.09     LegendNANA
17:30 15.4 7.0 57 21 22 10.0 101.09     Cloudy
18:30 13.9 9.0 72 22 19 10.0 101.10     LegendNANA
19:30 12.4 8.9 79 22 18 10.0 101.11     LegendNANA
20:30 12.4 9.8 84 23 17 10.0 101.12     Mostly Cloudy
21:30 12.5 10.6 88 23 17 10.0 101.10     LegendNANA
22:30 12.2 10.5 89 23 17 10.0 101.07     LegendNANA
23:30 11.8 10.2 90 24 19 10.0 101.04     Cloudy

Notes on Data Quality.

Legend

  • E = Estimated
  • M = Missing
  • NA = Not Available
Date modified: